Temperature
14 14 14 14 14 14 14 14 14 15 15 15 15 15 16 16 16 16 17 17 17 17 17 17 17 17 17 17 17 17 17 17 17 17 17 17 17 17 17 17 17 17 17
14 14 14 14 14 14 14 14 14 14 15 15 15 15 15 16 16 16 16 16 16 17 17 17 17 17 17 17 17 17 17 17 17 17 17 17 17 17 17 17 17 17 17
14 14 14 14 14 14 14 14 14 14 14 15 15 15 15 15 16 16 16 16 16 17 17 17 17 17 17 17 17 17 17 17 17 17 17 17 17 17 17 17 17 17 17
14 13 13 13 13 14 14 14 14 14 14 14 15 15 15 15 15 16 16 16 16 16 16 17 17 17 17 17 17 17 17 17 17 17 17 17 17 17 17 17 17 17 17
13 13 13 13 13 13 13 13 14 14 14 14 14 15 15 15 15 15 16 16 16 16 16 16 16 17 17 17 17 17 17 17 17 17 17 17 17 17 17 17 17 17 17
13 13 13 13 13 13 13 13 13 13 14 14 14 14 14 15 15 15 15 16 16 16 16 16 16 16 17 17 17 17 17 17 17 17 17 17 17 17 17 17 17 17 17
13 13 13 13 13 13 13 13 13 13 13 14 14 14 14 14 15 15 15 15 16 16 16 16 16 16 16 16 16 16 17 17 17 17 17 17 17 17 17 17 17 17 17
13 13 13 13 13 13 13 13 13 13 13 13 13 14 14 14 14 15 15 15 15 16 16 16 16 16 16 16 16 16 16 17 16 17 17 17 17 17 17 17 17 17 17
13 13 13 13 13 13 13 13 13 13 13 13 13 13 14 14 14 14 15 15 15 15 15 16 16 16 16 16 16 16 16 16 16 16 16 17 17 17 17 16 16 16 17
13 13 13 13 13 13 13 13 13 13 13 13 13 13 13 14 14 14 14 14 15 15 15 15 15 16 16 16 16 16 16 16 16 16 16 16 16 16 16 16 16 16 16
13 13 13 13 13 13 13 13 13 13 13 13 13 13 13 13 13 13 13 14 14 14 15 15 15 15 15 16 16 16 16 16 16 16 16 16 16 16 16 16 16 16 16
13 13 13 13 13 13 13 13 13 13 13 13 13 13 13 13 13 13 13 13 14 14 14 15 15 15 15 15 15 15 16 16 16 16 16 16 16 16 16 16 16 16 16
13 13 13 13 13 13 13 13 13 13 13 13 13 13 13 13 13 13 13 13 13 14 14 14 14 15 15 15 15 15 16 15 16 16 16 16 16 16 16 16 16 16 16
13 13 13 13 13 13 13 13 13 13 13 13 13 13 13 13 13 13 13 13 13 13 14 14 14 14 15 15 15 15 15 15 15 15 15 15 15 15 15 16 16 16 16
13 13 13 13 13 13 13 13 13 13 13 13 13 13 13 13 13 13 13 13 13 13 13 14 14 14 14 15 15 15 15 15 15 15 15 15 15 15 15 15 15 16 16
13 13 13 13 13 13 13 13 13 13 13 13 13 13 13 13 13 13 13 13 13 13 13 13 14 14 14 14 14 14 15 15 15 15 15 15 15 15 15 15 15 15 15
13 13 13 13 13 13 13 13 13 13 13 13 13 13 13 13 13 13 13 13 13 13 13 13 13 13 14 14 14 14 14 14 14 15 15 15 15 15 15 15 15 15 15
13 13 13 13 13 13 13 13 13 13 13 13 13 13 13 13 13 13 13 13 13 13 13 13 13 13 13 13 14 14 14 14 14 14 14 14 14 14 14 14 14 14 14
13 13 13 13 13 13 13 13 13 13 13 13 13 13 13 13 13 13 13 13 13 13 13 13 13 13 13 13 13 13 13 14 14 14 14 14 14 14 14 14 14 14 14
14 13 13 13 13 13 13 13 13 13 13 13 13 13 13 13 13 13 13 13 13 13 13 13 13 13 13 13 13 13 13 14 14 14 14 14 14 14 14 14 14 14 14
14 13 13 13 13 13 13 13 13 13 13 13 13 13 13 13 13 13 13 13 13 13 13 13 13 13 13 13 13 13 13 13 13 13 13 13 13 13 13 13 13 14 14
14 14 13 13 13 13 13 13 13 13 13 13 13 13 13 13 13 13 13 13 13 13 13 13 13 13 13 13 13 13 13 13 13 13 13 13 13 13 13 13 13 13 13
14 14 14 14 13 13 13 13 13 13 13 13 13 13 13 12 12 12 12 13 13 13 12 12 12 13 12 12 12 12 12 12 12 12 12 13 13 13 13 13 13 13 13
14 14 14 14 14 14 13 13 13 13 13 13 13 13 13 12 12 12 12 12 12 12 12 12 12 12 12 12 12 12 12 12 12 12 12 12 12 12 12 12 12 12 12
14 14 14 14 14 14 14 13 13 13 13 13 13 12 12 12 12 12 12 12 12 12 12 12 12 12 12 12 12 12 12 12 12 12 12 12 12 12 12 12 12 12 12
14 14 14 14 14 14 14 13 13 13 13 13 13 12 12 12 12 12 12 12 12 12 12 12 12 12 12 12 12 12 12 12 12 11 11 11 11 11 11 11 11 11 11
Wind_Speed
1 1 1 2 2 3 2 2 2 2 2 2 3 2 2 3 2 2 3 5 5 4 5 6 7 6 7 7 7 7 7 8 9 9 9 9 9 10 11 11 12 13 13
0 1 1 1 2 2 2 1 2 2 2 2 2 2 2 2 2 2 3 4 4 4 4 5 7 7 7 8 8 8 8 8 9 9 9 8 9 10 11 12 12 12 12
1 0 1 2 2 3 2 1 2 1 2 2 2 3 2 2 2 2 2 2 3 3 3 5 6 6 7 8 9 9 8 9 9 10 9 9 9 10 11 11 11 11 11
1 0 1 2 3 2 1 1 1 1 2 2 2 2 2 1 2 2 1 2 1 1 2 3 4 6 7 7 8 9 9 9 10 10 10 10 10 11 11 10 10 10 10
2 1 1 2 2 1 1 1 1 0 1 2 2 1 2 1 2 1 1 1 1 1 1 2 3 5 6 6 7 9 10 10 10 10 10 10 10 11 11 11 11 10 10
3 1 1 2 2 1 1 1 1 1 0 1 1 2 2 2 1 1 1 0 1 0 1 1 1 2 4 6 6 7 9 10 10 10 11 11 10 11 11 11 11 11 10
3 1 2 2 1 1 1 1 0 1 1 1 1 2 3 2 2 2 1 1 1 1 1 1 1 1 2 4 6 6 8 9 10 10 10 11 11 11 11 12 12 11 10
3 2 1 1 1 1 1 1 0 1 1 1 1 2 2 4 3 3 2 2 1 1 1 1 1 1 2 2 4 6 8 8 9 10 10 11 10 10 11 11 12 11 11
4 2 2 2 1 1 1 1 1 2 1 1 1 2 2 1 1 3 3 2 2 2 2 2 1 1 2 3 3 5 6 7 8 9 10 10 10 10 10 10 11 11 11
3 3 2 1 1 1 1 2 1 1 2 1 1 1 1 2 2 1 2 2 2 2 2 2 2 2 1 2 3 4 5 6 7 8 9 10 10 10 10 10 10 11 11
4 4 3 2 1 1 1 1 1 1 1 2 1 1 1 1 1 2 0 2 2 2 1 1 1 2 2 1 1 3 4 6 6 7 8 9 10 10 10 9 9 10 10
3 4 3 2 2 1 1 1 1 2 1 2 1 1 2 2 1 2 1 0 1 2 1 1 1 1 1 1 0 1 3 5 5 6 7 8 8 9 9 9 9 9 9
3 4 3 2 2 2 1 1 1 1 2 2 2 2 2 2 2 2 2 1 0 1 1 1 0 1 1 1 0 1 3 4 5 5 6 7 7 7 8 8 8 8 9
3 4 3 3 2 2 1 0 0 1 1 2 2 2 1 1 2 2 3 3 1 1 1 1 1 0 1 1 1 1 1 3 4 5 5 6 7 8 7 7 7 7 7
3 3 3 2 2 2 1 0 0 1 1 1 1 2 1 1 1 2 2 3 3 2 1 1 1 1 1 1 1 1 1 3 4 4 4 5 6 8 8 7 7 7 6
2 2 2 2 2 2 1 1 0 0 0 0 1 1 1 0 1 1 2 2 2 3 1 1 1 1 1 1 2 1 1 2 3 4 4 4 5 6 6 6 7 6 6
2 2 2 2 2 2 1 1 1 0 0 0 0 1 1 1 1 1 1 2 2 2 2 1 0 0 0 1 2 2 2 1 1 2 4 4 5 5 5 6 6 5 5
2 2 1 1 2 1 1 0 1 1 0 1 1 1 1 1 1 1 1 2 2 2 3 2 0 0 0 0 1 1 1 1 1 1 3 4 4 4 5 6 6 5 5
2 1 1 1 2 2 1 1 1 1 0 1 1 1 1 2 1 1 1 2 1 2 2 3 1 0 0 0 1 1 1 1 1 1 1 2 3 3 4 5 6 6 6
2 2 2 2 2 2 2 1 0 1 1 1 1 1 1 2 2 2 2 2 2 2 3 3 1 0 0 0 1 1 1 1 1 1 2 1 1 2 3 4 5 5 6
3 3 2 2 2 2 2 2 1 1 0 1 1 1 1 1 2 2 2 3 3 3 2 2 1 0 0 1 1 0 0 1 1 1 1 1 1 0 1 2 3 5 5
3 2 2 2 2 2 3 3 3 1 1 0 1 1 1 1 1 1 2 3 5 4 4 3 2 2 1 1 1 1 1 1 1 1 0 1 0 1 1 1 2 4 4
3 3 3 3 3 4 3 3 3 2 2 1 1 0 1 1 1 1 1 1 1 3 4 4 4 3 3 3 3 2 2 1 1 1 0 1 1 1 1 1 0 2 3
4 4 4 4 4 4 4 4 4 2 2 1 1 1 1 1 0 2 2 2 1 0 1 2 3 3 3 3 3 3 2 1 0 1 1 1 1 1 1 1 2 1 1
5 4 3 4 4 5 4 5 4 2 1 1 1 1 1 1 2 2 3 2 0 2 1 2 3 2 1 2 3 3 2 2 0 1 0 1 0 1 1 1 2 3 3
6 5 4 5 5 5 5 5 6 3 2 1 1 1 1 2 1 3 3 3 2 2 0 1 1 2 2 2 2 2 3 2 1 1 0 1 0 0 1 1 2 3 3
Wind_Direction
328 327 327 335 331 334 335 332 331 323 322 316 308 302 295 289 277 266 274 284 273 251 239 232 224 214 207 197 189 181 170 160 154 149 145 146 146 147 149 147 145 143 143
234 294 319 323 319 312 311 311 304 304 303 297 303 308 292 289 278 269 269 287 277 258 243 234 228 221 213 202 192 185 179 169 167 159 155 154 150 151 153 150 152 149 149
307 295 311 308 302 308 312 320 324 337 326 319 311 306 296 284 284 282 282 283 277 259 237 234 226 219 217 211 197 187 183 177 175 172 167 164 157 152 150 151 151 153 155
344 360 309 301 305 313 320 305 332 339 335 331 317 312 317 316 298 274 261 268 258 251 245 244 224 219 220 216 203 192 188 182 179 179 175 170 165 161 159 158 155 154 156
344 356 316 304 316 329 327 316 37 328 322 321 310 328 343 337 313 308 283 266 232 210 241 247 228 225 221 215 207 199 195 188 183 181 180 176 172 169 167 166 164 162 159
342 351 317 316 333 355 337 338 342 5 329 310 352 16 360 350 347 348 310 325 36 67 156 171 201 232 222 206 197 197 197 192 188 187 186 184 180 177 175 174 172 171 167
336 332 316 326 335 324 287 288 354 29 13 356 52 14 1 9 22 3 347 30 39 26 66 124 148 199 219 204 193 200 199 192 190 190 191 188 186 184 182 181 180 179 176
330 327 313 306 306 306 325 329 86 95 20 42 104 82 13 360 4 3 11 35 37 39 39 56 132 169 191 184 197 205 201 195 196 192 191 189 185 186 186 188 187 185 183
329 329 313 298 301 271 269 262 202 149 135 23 73 135 136 212 327 348 6 18 23 45 32 25 68 124 170 171 180 199 203 201 202 195 192 188 188 189 189 191 193 192 191
329 332 321 301 289 268 262 260 191 172 148 138 28 62 149 164 139 9 353 0 14 39 35 30 39 59 95 154 170 176 184 193 204 201 196 193 192 194 197 199 199 200 200
327 329 323 311 300 274 260 258 180 171 162 160 160 153 95 74 103 146 355 345 0 355 21 38 41 46 61 92 157 184 191 194 204 205 201 197 196 196 198 202 205 207 208
321 328 325 322 305 284 265 241 201 183 182 167 166 160 151 147 165 149 178 274 329 320 345 41 35 25 35 58 185 189 190 193 200 201 202 201 201 201 201 203 210 213 213
305 315 324 317 310 291 275 248 196 196 188 176 186 194 184 185 168 163 157 173 330 330 345 351 345 7 15 12 298 189 190 203 207 204 195 194 197 201 202 208 213 216 219
274 297 309 310 315 308 304 197 186 210 191 191 206 191 190 209 180 173 165 154 129 349 345 301 334 356 8 5 340 179 195 205 198 200 201 197 198 201 204 214 220 221 224
282 301 315 327 329 341 8 91 107 262 192 193 207 198 198 218 180 181 168 162 156 164 258 287 314 334 356 21 11 129 175 194 185 191 196 196 196 198 204 211 218 221 226
291 315 325 331 335 345 7 52 6 343 121 207 183 168 187 206 153 168 172 172 169 166 193 256 259 308 335 25 54 74 125 152 163 175 177 180 187 187 197 207 212 217 223
283 294 304 319 327 332 353 16 344 40 85 346 161 175 204 175 154 163 156 157 168 162 178 266 307 330 23 38 26 40 59 117 151 181 186 183 184 185 193 203 209 209 215
261 271 290 314 316 328 340 314 314 349 207 265 265 189 219 173 165 168 156 167 172 173 167 177 305 359 15 170 78 55 39 76 104 182 194 194 190 195 201 204 208 213 219
251 266 246 270 294 297 289 272 270 286 273 263 271 223 227 164 176 189 174 170 172 157 151 157 188 53 358 43 77 63 53 32 46 54 166 178 190 205 207 206 209 213 220
227 240 236 248 272 280 269 259 256 290 297 312 316 271 223 188 200 194 182 179 156 135 135 143 160 178 148 352 96 87 39 20 12 28 55 94 182 210 214 212 215 216 218
223 227 229 261 283 275 260 229 214 210 245 338 346 329 286 208 202 193 182 177 157 146 141 145 158 149 181 142 157 146 113 2 355 20 22 4 9 355 267 233 224 221 217
223 213 222 240 263 271 268 210 183 172 166 188 322 325 321 334 286 217 181 168 166 164 169 168 178 182 217 204 192 174 153 85 327 344 49 310 38 269 292 257 228 218 217
214 216 227 229 247 266 259 217 191 167 170 194 224 300 338 351 23 91 81 98 147 185 183 173 177 200 204 202 177 176 181 184 218 268 84 308 324 270 303 317 218 205 212
210 216 224 225 238 258 242 210 179 155 151 177 210 216 221 295 283 134 123 95 62 338 209 178 181 204 206 196 186 185 181 162 67 3 121 201 319 303 334 18 42 86 125
210 212 215 217 225 251 233 204 175 150 158 214 250 231 211 235 259 151 132 134 39 323 330 159 171 176 178 164 153 131 132 130 5 331 34 164 286 326 343 360 34 50 52
211 209 216 217 217 233 231 209 180 161 175 211 253 279 238 212 231 169 156 157 188 264 244 96 70 41 54 80 120 149 166 161 166 243 297 147 225 44 347 353 16 27 31
Height
1511 1510 1509 1509 1508 1507 1506 1506 1506 1506 1506 1506 1506 1507 1507 1508 1509 1511 1512 1513 1515 1516 1517 1518 1520 1521 1523 1524 1525 1527 1528 1529 1530 1531 1532 1533 1534 1536 1537 1539 1542 1544 1546
1510 1509 1508 1507 1506 1505 1505 1504 1504 1504 1504 1504 1504 1505 1506 1506 1508 1509 1510 1512 1513 1514 1516 1517 1519 1520 1522 1523 1525 1526 1528 1529 1531 1532 1533 1534 1535 1535 1536 1539 1542 1544 1546
1508 1507 1506 1505 1505 1504 1503 1503 1503 1502 1502 1502 1503 1503 1504 1505 1505 1507 1508 1510 1511 1513 1514 1516 1517 1519 1521 1522 1524 1525 1527 1529 1531 1532 1534 1535 1536 1536 1538 1540 1543 1545 1547
1507 1506 1505 1504 1503 1502 1502 1501 1501 1501 1501 1501 1501 1501 1502 1503 1504 1505 1506 1508 1509 1511 1513 1514 1516 1518 1519 1521 1523 1524 1526 1528 1530 1532 1534 1535 1536 1538 1539 1541 1543 1545 1547
1506 1505 1504 1503 1502 1501 1500 1500 1500 1500 1500 1500 1500 1500 1500 1501 1502 1503 1504 1506 1508 1509 1511 1513 1515 1516 1518 1519 1521 1523 1525 1527 1529 1531 1533 1535 1536 1538 1540 1541 1543 1545 1547
1505 1504 1503 1502 1501 1500 1499 1499 1498 1499 1499 1499 1498 1499 1499 1500 1501 1501 1503 1504 1506 1508 1510 1511 1513 1515 1517 1518 1520 1522 1524 1526 1528 1530 1532 1534 1536 1538 1539 1541 1543 1545 1547
1504 1503 1502 1501 1500 1499 1498 1498 1497 1497 1497 1498 1498 1498 1498 1499 1499 1500 1501 1503 1505 1506 1508 1510 1512 1513 1515 1517 1519 1521 1523 1525 1527 1529 1531 1533 1535 1537 1539 1541 1543 1544 1546
1504 1502 1501 1500 1499 1498 1497 1497 1497 1497 1497 1497 1498 1498 1498 1500 1499 1499 1500 1502 1503 1505 1507 1508 1510 1512 1514 1516 1517 1519 1521 1524 1525 1528 1530 1532 1534 1536 1538 1540 1542 1544 1545
1504 1502 1501 1500 1498 1497 1497 1496 1496 1496 1496 1497 1497 1498 1498 1498 1498 1499 1499 1501 1502 1504 1505 1507 1509 1510 1512 1514 1516 1518 1520 1522 1524 1526 1528 1530 1533 1535 1537 1539 1541 1543 1544
1503 1502 1500 1499 1498 1496 1496 1495 1495 1495 1496 1496 1497 1497 1498 1498 1498 1499 1500 1500 1501 1503 1504 1505 1507 1509 1511 1512 1514 1516 1518 1520 1522 1524 1526 1529 1531 1533 1535 1537 1539 1541 1543
1503 1502 1500 1499 1497 1496 1495 1495 1495 1495 1495 1496 1496 1496 1497 1497 1498 1498 1499 1499 1501 1502 1503 1504 1505 1507 1509 1511 1513 1515 1516 1518 1520 1522 1524 1527 1529 1531 1533 1535 1537 1539 1541
1503 1501 1500 1498 1497 1495 1494 1494 1494 1494 1494 1495 1495 1496 1496 1497 1497 1497 1498 1499 1500 1501 1502 1503 1504 1505 1507 1509 1511 1513 1515 1517 1519 1521 1523 1524 1527 1529 1530 1533 1534 1536 1538
1503 1501 1500 1498 1497 1495 1494 1494 1493 1493 1493 1494 1494 1495 1495 1496 1496 1497 1498 1498 1499 1500 1501 1502 1503 1504 1506 1507 1509 1511 1513 1515 1517 1519 1521 1522 1524 1526 1528 1530 1532 1534 1535
1502 1501 1500 1498 1497 1495 1494 1493 1493 1493 1493 1493 1493 1494 1494 1494 1495 1496 1497 1497 1498 1499 1500 1501 1502 1503 1504 1506 1508 1509 1511 1513 1515 1517 1519 1520 1522 1524 1526 1528 1529 1531 1533
1502 1501 1500 1498 1497 1495 1494 1493 1493 1492 1492 1492 1492 1493 1493 1493 1494 1494 1495 1496 1498 1498 1499 1500 1501 1502 1503 1504 1506 1507 1509 1511 1513 1514 1516 1518 1520 1521 1523 1525 1526 1528 1530
1502 1501 1500 1498 1497 1495 1494 1493 1493 1492 1492 1492 1492 1492 1492 1492 1493 1493 1494 1495 1496 1498 1498 1499 1500 1501 1502 1503 1504 1506 1507 1509 1510 1512 1514 1515 1517 1519 1520 1521 1523 1525 1526
1502 1501 1500 1498 1497 1496 1495 1494 1493 1492 1492 1492 1491 1491 1491 1492 1492 1493 1493 1494 1495 1496 1497 1498 1499 1500 1501 1502 1503 1504 1505 1507 1508 1510 1511 1513 1514 1515 1517 1518 1520 1521 1523
1501 1500 1499 1498 1497 1496 1495 1494 1493 1492 1492 1491 1491 1491 1491 1491 1492 1492 1493 1493 1494 1495 1496 1496 1497 1498 1499 1500 1501 1502 1503 1505 1506 1507 1508 1510 1511 1513 1514 1515 1517 1518 1519
1500 1499 1498 1497 1497 1496 1495 1494 1493 1492 1492 1491 1491 1491 1491 1491 1491 1491 1492 1493 1493 1494 1495 1495 1496 1497 1498 1499 1500 1501 1502 1503 1504 1505 1506 1507 1508 1509 1511 1512 1513 1514 1515
1498 1498 1497 1496 1496 1495 1494 1494 1493 1492 1491 1491 1490 1490 1490 1490 1490 1491 1491 1492 1492 1493 1494 1494 1495 1496 1497 1497 1498 1499 1500 1501 1502 1503 1504 1504 1505 1506 1507 1508 1510 1510 1511
1497 1496 1496 1495 1495 1494 1493 1493 1492 1492 1491 1490 1490 1490 1490 1490 1490 1490 1491 1491 1492 1492 1493 1493 1494 1495 1495 1496 1497 1498 1499 1499 1500 1501 1501 1502 1503 1504 1504 1505 1506 1507 1508
1495 1495 1494 1494 1493 1492 1492 1492 1491 1491 1490 1490 1489 1489 1489 1489 1489 1489 1490 1490 1491 1491 1492 1492 1493 1494 1494 1495 1496 1497 1497 1498 1498 1500 1500 1500 1501 1501 1502 1502 1503 1504 1504
1492 1492 1492 1492 1491 1491 1490 1490 1490 1490 1489 1489 1489 1488 1488 1488 1488 1488 1489 1489 1490 1490 1491 1492 1492 1493 1493 1494 1495 1495 1496 1496 1497 1498 1498 1498 1499 1499 1499 1499 1500 1500 1501
1489 1489 1489 1489 1489 1489 1489 1489 1488 1488 1488 1488 1487 1487 1487 1487 1487 1487 1488 1488 1489 1489 1489 1490 1491 1492 1492 1493 1493 1494 1494 1495 1495 1496 1497 1497 1497 1497 1497 1497 1497 1498 1498
1486 1486 1486 1487 1487 1487 1487 1487 1487 1486 1486 1486 1486 1486 1486 1486 1486 1486 1487 1487 1487 1488 1488 1489 1489 1490 1491 1491 1492 1492 1492 1493 1493 1494 1495 1495 1495 1495 1495 1495 1495 1495 1496
1482 1483 1483 1483 1484 1484 1484 1484 1484 1484 1484 1484 1484 1484 1484 1484 1485 1485 1485 1485 1485 1486 1486 1487 1488 1488 1489 1489 1490 1490 1491 1491 1491 1492 1492 1493 1493 1493 1493 1493 1493 1493 1493